Location: Litvinovka
(48.6667°N, 34.3500°E)
Time: 11:11:29
(UTC+00:00)

SJ-6B - Pass Details

Date: 18 September 2020
Orbit: 511 x 580 km, 97.6° (Epoch: 25 October)

Event Time Altitude Azimuth Distance (km) Brightness Sun altitude
Exits shadow 17:45:52 20° 189° (S) 1,212 4.4 -19.5°
Maximum altitude 17:48:12 53° 260° (W) 639 3.4 -19.8°
Drops below altitude 10° 17:51:54 10° 338° (NNW) 1,754 6.1 -20.4°
Sets 17:54:03 0° 343° (NNW) 2,654 7.0 -20.7°
